Location: Orinda
(37.8771°N, 122.1797°W)
Time: 03:04:08
(UTC+00:00)

RESURS DK-1 - Pass Details

Date: 21 October 2019
Orbit: 557 x 561 km, 69.9° (Epoch: 22 November)

Event Time Altitude Azimuth Distance (km) Brightness Sun altitude
Exits shadow 13:20:30 21° 273° (W) 1,295 3.6 -13.0°
Maximum altitude 13:21:49 24° 301° (WNW) 1,172 3.5 -12.7°
Drops below altitude 10° 13:25:13 10° 357° (N) 1,848 4.9 -12.1°
Sets 13:27:45 0° 11° (NNE) 2,747 6.0 -11.6°
